FW5872 Weather Reports


time (UTC)temp
C
wind
direction
speed
KPH
gust
KPH
rain 1hr
cm
rain 24hr
cm
rain mn
cm
humidity
%
barometer
mb
20260906124536 19 0 0.0 0.0 0.00 0.00 0.00 85 1016.1
20260906123036 18 0 0.0 1.6 0.00 0.00 0.00 86 1015.9
20260906121539 17 0 0.0 0.0 0.00 0.00 0.00 88 1015.8
20260906120034 17 0 0.0 0.0 0.00 0.00 0.00 90 1015.6
20260906114544 16 0 0.0 0.0 0.00 0.00 0.00 91 1015.3
20260906113036 16 0 0.0 0.0 0.00 0.00 0.00 91 1015.3
20260906111542 16 0 0.0 0.0 0.00 0.00 0.00 91 1015.2
20260906110036 16 0 0.0 0.0 0.00 0.00 0.00 91 1015.1
20260906104536 16 0 0.0 0.0 0.00 0.00 0.00 90 1014.8
20260906103038 16 0 0.0 0.0 0.00 0.00 0.00 90 1014.4
20260906101537 16 0 0.0 0.0 0.00 0.00 0.00 90 1014.3
20260906100037 16 0 0.0 0.0 0.00 0.00 0.00 90 1014.1
20260906094540 16 0 0.0 0.0 0.00 0.00 0.00 90 1013.9
20260906093037 16 0 0.0 0.0 0.00 0.00 0.00 90 1014.0
20260906091535 16 0 0.0 0.0 0.00 0.00 0.00 90 1013.8
20260906090045 16 0 0.0 0.0 0.00 0.00 0.00 90 1013.7
20260906084536 16 0 0.0 0.0 0.00 0.00 0.00 91 1013.6
20260906083037 16 0 0.0 0.0 0.00 0.00 0.00 90 1013.5
20260906081536 16 0 0.0 0.0 0.00 0.00 0.00 90 1013.6
20260906080041 17 0 0.0 0.0 0.00 0.00 0.00 89 1013.4
20260906074535 17 0 0.0 0.0 0.00 0.00 0.00 88 1013.4
20260906073036 17 0 0.0 0.0 0.00 0.00 0.00 86 1013.3
20260906071532 17 0 0.0 0.0 0.00 0.00 0.00 86 1013.4
20260906070035 17 0 0.0 0.0 0.00 0.00 0.00 86 1013.3
20260906064534 17 0 0.0 0.0 0.00 0.00 0.00 87 1013.3
20260906063035 17 0 0.0 0.0 0.00 0.00 0.00 87 1013.3
20260906061545 18 0 0.0 0.0 0.00 0.00 0.00 88 1013.4
20260906060039 18 0 0.0 0.0 0.00 0.00 0.00 88 1013.4
20260906054541 18 0 0.0 0.0 0.00 0.00 0.00 88 1013.3
20260906053036 18 0 0.0 0.0 0.00 0.00 0.00 86 1013.2
20260906051537 18 0 0.0 0.0 0.00 0.00 0.00 87 1013.3
20260906050039 19 0 0.0 0.0 0.00 0.00 0.00 86 1013.5
20260906044535 19 0 0.0 0.0 0.00 0.00 0.00 87 1013.6
20260906043034 19 0 0.0 0.0 0.00 0.00 0.00 88 1013.8
20260906041536 20 0 0.0 0.0 0.00 0.00 0.00 88 1013.8
20260906040037 20 0 0.0 0.0 0.00 0.00 0.00 88 1013.6
20260906034551 20 0 0.0 0.0 0.00 0.00 0.00 88 1013.7
20260906033040 20 0 0.0 0.0 0.00 0.00 0.00 88 1013.8
20260906031535 20 0 0.0 0.0 0.00 0.00 0.00 86 1013.8
20260906030036 21 0 0.0 0.0 0.00 0.00 0.00 85 1013.5
20260906024539 21 0 0.0 0.0 0.00 0.00 0.00 83 1013.6
20260906023036 21 0 0.0 0.0 0.00 0.00 0.00 82 1013.5
20260906021541 21 0 0.0 0.0 0.00 0.00 0.00 82 1013.4
20260906020036 22 0 0.0 0.0 0.00 0.00 0.00 81 1013.4
20260906014538 22 0 0.0 0.0 0.00 0.00 0.00 82 1013.3
20260906013037 22 0 0.0 0.0 0.00 0.00 0.00 83 1013.1
20260906011535 22 0 0.0 0.0 0.00 0.00 0.00 84 1013.0
20260906010037 22 0 0.0 0.0 0.00 0.00 0.00 84 1012.8
20260906004533 22 0 0.0 0.0 0.00 0.00 0.00 83 1012.7
20260906003033 22 0 0.0 0.0 0.00 0.00 0.00 81 1012.5
20260906001551 23 0 0.0 0.0 0.00 0.00 0.00 79 1012.5
20260906000036 23 0 0.0 0.0 0.00 0.00 0.00 79 1012.4
20260905234533 23 0 0.0 0.0 0.00 0.00 0.00 76 1012.4
20260905233035 24 0 0.0 0.0 0.00 0.00 0.00 76 1012.1
20260905231535 24 0 0.0 0.0 0.00 0.00 0.00 75 1011.9
20260905230039 25 0 0.0 0.0 0.00 0.00 0.00 74 1011.8
20260905224534 25 0 0.0 0.0 0.00 0.00 0.00 74 1011.7
20260905223047 25 0 0.0 0.0 0.00 0.00 0.00 75 1011.8
20260905221537 26 0 0.0 0.0 0.00 0.00 0.00 72 1011.7
20260905220034 26 0 0.0 1.6 0.00 0.00 0.00 71 1011.6
20260905214543 26 0 0.0 6.4 0.00 0.00 0.00 72 1011.6
20260905213034 26 0 0.0 0.0 0.00 0.00 0.00 73 1011.3
20260905211532 26 0 0.0 0.0 0.00 0.00 0.00 74 1011.2
20260905210045 26 0 0.0 0.0 0.00 0.00 0.00 75 1011.0
20260905204536 26 0 0.0 0.0 0.00 0.00 0.00 74 1011.1
20260905203037 26 0 0.0 0.0 0.00 0.00 0.00 72 1011.3
20260905201536 26 0 0.0 0.0 0.00 0.00 0.00 72 1011.4
20260905200104 27 0 0.0 4.8 0.00 0.00 0.00 71 1011.4
20260905194535 27 42 0.0 4.8 0.00 0.00 0.00 70 1011.6
20260905193040 27 0 0.0 3.2 0.00 0.00 0.00 72 1011.6
20260905191535 27 0 0.0 1.6 0.00 0.00 0.00 76 1011.6
20260905190038 27 0 0.0 3.2 0.00 0.00 0.00 73 1011.6
20260905184548 27 67 0.0 4.8 0.00 0.15 0.00 72 1011.8
20260905183041 26 0 0.0 0.0 0.00 0.15 0.00 76 1012.0
20260905181539 26 0 0.0 0.0 0.00 0.15 0.00 73 1012.2
20260905180041 26 0 0.0 0.0 0.00 0.15 0.00 80 1012.3
20260905174534 25 0 0.0 0.0 0.00 0.15 0.00 77 1012.6
20260905173044 25 0 0.0 0.0 0.00 0.15 0.00 77 1012.7
20260905171537 26 0 0.0 0.0 0.00 0.15 0.00 76 1012.7
20260905170036 26 0 0.0 0.0 0.00 0.15 0.00 79 1012.9
20260905164534 26 0 0.0 0.0 0.00 0.15 0.00 78 1012.8
20260905163034 26 255 0.0 1.6 0.00 0.15 0.00 76 1012.9
20260905161538 26 0 0.0 0.0 0.00 0.15 0.00 76 1013.2
20260905160033 26 0 0.0 3.2 0.00 0.15 0.00 78 1013.2
20260905154534 26 0 0.0 1.6 0.00 0.15 0.00 81 1013.3
20260905153038 25 0 0.0 0.0 0.00 0.15 0.00 80 1013.4
20260905151535 25 0 0.0 0.0 0.00 0.15 0.00 79 1013.8
20260905150035 25 0 0.0 1.6 0.00 0.15 0.00 78 1013.7
20260905144543 25 0 0.0 1.6 0.00 0.15 0.00 79 1013.5
20260905143036 25 271 0.0 1.6 0.00 0.15 0.00 79 1013.4
20260905141537 25 0 0.0 1.6 0.00 0.15 0.00 81 1013.2
20260905140035 25 0 0.0 0.0 0.00 0.15 0.00 82 1012.8
20260905134539 25 0 0.0 0.0 0.00 0.15 0.00 83 1012.9
20260905133035 24 0 0.0 0.0 0.00 0.15 0.00 85 1012.9
20260905131550 23 0 0.0 0.0 0.00 0.15 0.00 86 1013.1
20260905130035 23 0 0.0 0.0 0.00 0.15 0.00 89 1012.9